Wind_Speed
17 16 21 21 18 17 9 11 17 16 11 17 18 16 16 14 14 16 17 19 21 22 26 29 28 29 28 27 25 25 23 21 19 18 17 16 15 12 10 8 7 7 7 6
11 20 18 15 15 16 14 12 14 11 15 14 17 17 13 18 16 16 18 19 20 21 23 27 29 30 31 29 28 27 26 23 21 20 18 16 15 13 10 7 8 8 8 8
17 6 19 15 16 16 19 18 13 15 15 13 15 17 17 17 15 15 16 17 18 21 23 24 29 31 31 32 31 30 29 26 23 20 18 15 13 10 12 9 10 8 9 9
17 20 6 19 20 19 19 18 15 12 11 14 19 15 20 18 19 18 19 20 21 22 22 22 28 32 34 34 32 30 29 28 26 24 21 20 18 17 15 12 10 10 10 9
15 15 19 15 17 21 18 11 15 18 16 17 15 13 13 22 18 21 21 22 22 23 24 25 29 35 36 34 34 32 30 28 28 28 25 22 20 18 14 14 12 11 9 9
18 15 14 22 15 15 10 12 14 15 16 18 23 16 17 16 20 21 21 22 23 24 25 24 32 33 33 34 33 33 32 31 30 30 29 25 22 20 18 16 15 13 13 11
17 16 15 10 18 18 16 16 10 11 14 17 22 21 17 8 21 19 20 22 23 23 23 24 24 30 34 36 36 36 34 32 32 30 30 31 27 24 20 17 16 14 14 13
11 15 20 16 19 16 22 19 13 18 14 16 22 17 22 24 2 14 18 19 21 22 22 24 25 31 34 37 39 37 37 36 35 33 31 30 29 27 25 21 19 17 15 13
5 17 2 3 14 17 16 22 21 22 10 11 17 21 15 18 23 17 13 12 18 20 23 25 26 33 35 37 39 39 36 36 36 37 32 30 30 30 27 24 21 22 17 13
4 8 5 8 8 16 19 12 19 16 20 19 14 18 17 23 18 20 22 18 16 18 21 22 23 33 36 38 39 40 39 38 39 38 35 34 32 31 31 25 24 21 19 18
8 5 6 5 13 20 15 16 16 18 17 14 15 12 11 16 22 21 16 16 17 17 17 20 22 33 38 36 36 39 39 39 38 38 37 35 34 32 30 28 26 23 20 19
3 6 11 16 6 7 12 14 26 14 24 17 17 14 6 6 17 14 18 17 17 19 15 16 19 26 32 37 37 39 40 39 39 38 37 37 35 33 31 29 28 24 22 21
1 6 9 15 16 9 9 9 12 18 20 23 17 18 8 9 3 5 7 4 3 5 10 14 17 19 28 34 35 38 39 39 39 38 38 37 36 34 33 32 29 27 24 23
6 11 11 13 10 10 5 9 6 15 16 16 17 13 19 17 13 5 7 6 5 4 6 11 15 18 26 31 33 35 38 39 38 38 38 36 35 35 36 34 31 28 28 25
6 13 12 14 14 12 15 15 15 16 16 21 19 20 19 7 5 8 9 7 6 6 4 4 11 14 19 27 30 34 37 36 38 36 38 37 36 35 34 32 32 30 29 27
8 13 9 15 17 14 17 17 18 19 19 17 17 19 13 10 12 12 8 9 8 7 7 8 7 11 15 25 31 34 36 38 38 37 37 36 34 35 35 32 31 30 29 29
9 9 9 13 12 9 15 21 22 20 20 18 19 16 11 8 14 7 8 8 9 8 9 10 10 11 16 23 28 33 36 35 38 36 37 36 36 35 35 34 32 31 31 29
15 12 9 11 9 15 4 10 12 18 19 22 17 12 6 9 12 2 7 10 11 11 12 12 12 14 18 20 27 30 33 35 34 34 34 35 35 35 33 32 32 32 31 30
16 10 9 11 11 14 6 9 9 12 6 1 11 12 10 12 14 16 9 12 13 14 14 15 18 19 20 22 25 28 32 34 35 36 36 36 36 33 32 32 32 31 30 29
18 17 8 11 12 13 6 5 10 8 4 9 10 9 11 12 10 3 12 14 16 16 17 20 22 22 21 23 27 30 33 32 35 39 39 36 34 34 34 32 31 31 29 29
11 11 15 14 11 11 5 5 3 6 2 12 10 11 12 8 10 10 12 13 17 18 20 23 17 17 20 18 29 28 31 34 37 31 32 32 32 31 32 31 30 30 29 26
5 7 7 10 8 16 6 0 2 3 10 11 13 12 13 12 13 11 11 13 14 16 21 23 16 14 15 9 20 21 24 24 27 28 30 30 31 30 28 28 27 26 25 26
3 3 4 5 6 5 7 9 9 7 11 14 14 14 15 14 12 13 11 13 14 17 19 22 20 14 17 13 10 16 19 23 26 26 27 27 27 28 26 27 25 25 25 25
2 1 4 4 2 7 11 10 7 10 12 12 13 14 15 13 12 12 10 11 12 17 18 21 19 19 20 20 14 8 9 17 22 24 24 24 24 24 25 24 25 25 26 26
3 7 5 5 10 12 6 6 9 13 12 11 11 10 14 11 11 11 10 10 11 14 16 19 20 20 21 20 18 14 9 15 20 22 22 22 22 23 22 23 23 24 24 25
3 4 3 3 9 8 8 10 13 13 13 10 9 9 12 12 10 10 9 11 13 13 13 14 16 18 22 21 21 20 18 11 10 14 16 18 18 18 18 19 17 16 12 19
Wind_Direction
196 205 211 211 218 239 295 230 226 217 194 211 221 211 170 183 191 182 181 184 188 191 188 188 192 190 190 192 189 191 194 194 191 194 195 191 194 196 200 206 201 191 187 190
182 223 216 224 218 229 232 231 226 223 211 218 219 229 212 178 201 196 187 187 189 188 189 192 193 193 194 194 194 193 195 195 195 196 198 199 199 200 202 197 186 182 185 190
219 197 221 217 220 220 228 229 227 229 194 221 244 231 215 182 205 201 201 191 192 192 192 192 194 197 197 196 197 197 196 195 195 198 195 194 194 202 201 197 195 196 189 193
235 241 218 210 225 214 231 217 240 242 245 224 213 234 208 200 204 201 199 195 197 194 197 193 196 199 200 201 199 199 200 197 196 196 196 198 199 203 205 206 197 192 198 200
216 214 215 219 226 221 238 234 218 237 245 256 192 235 230 197 200 204 208 199 198 200 196 198 198 201 202 200 200 200 200 202 200 197 202 201 211 210 207 209 203 207 203 206
256 199 223 229 222 228 220 232 225 229 234 237 231 217 228 195 201 205 205 205 204 200 200 202 201 201 203 202 201 200 200 201 203 200 203 205 209 217 210 206 208 217 218 219
222 236 223 223 207 209 208 205 213 208 215 231 220 231 234 228 182 211 201 202 203 205 202 202 199 199 201 201 201 201 198 201 202 204 204 206 208 209 212 210 214 220 219 222
230 214 215 205 227 200 209 221 219 210 211 223 222 225 222 233 51 218 224 195 204 204 207 204 202 200 199 201 201 201 196 199 200 203 205 205 207 212 218 220 226 224 227 230
279 241 74 234 234 241 198 219 236 259 264 263 211 219 241 220 224 206 201 215 202 202 205 206 203 203 201 200 201 199 198 199 197 202 204 207 209 214 219 224 226 231 230 232
48 274 188 159 233 242 255 225 221 235 242 240 229 225 210 216 222 219 225 219 211 213 208 208 204 203 203 202 202 201 202 200 199 200 205 209 213 214 220 222 225 227 228 227
315 259 175 210 210 222 208 236 233 234 225 235 239 213 228 230 209 217 212 217 222 223 210 209 205 205 205 203 201 202 202 204 205 203 203 207 210 213 217 221 226 226 224 223
36 297 266 251 99 328 293 260 224 229 219 236 267 227 108 207 212 199 220 230 238 226 215 206 206 203 202 203 202 201 201 203 205 204 201 204 207 209 213 220 224 224 223 221
36 231 256 236 241 232 241 221 272 259 239 232 223 232 186 171 176 166 206 262 271 278 247 216 203 198 203 203 204 203 203 203 202 202 203 205 208 210 212 216 218 220 221 221
283 267 262 269 340 356 270 230 263 261 235 231 237 242 225 226 243 348 345 359 345 319 297 225 208 204 201 203 201 203 204 204 201 199 201 202 203 204 208 213 214 214 216 219
260 263 255 266 276 276 273 264 262 254 261 249 241 226 249 224 13 329 316 314 314 310 320 240 229 214 208 204 205 203 206 203 202 197 200 200 201 203 208 209 209 211 214 218
230 260 267 270 268 258 267 261 251 247 245 255 266 277 284 323 307 284 311 320 322 324 306 296 268 247 222 212 207 204 205 204 201 197 200 199 200 201 205 207 208 209 212 215
246 257 258 262 261 274 263 254 241 243 234 238 236 245 254 283 270 320 324 323 327 316 307 302 288 269 251 223 212 209 206 203 200 199 197 197 198 201 203 204 206 208 210 213
255 254 254 265 288 242 220 37 304 280 224 227 251 257 301 295 306 -0 0 339 327 328 317 306 293 276 258 245 220 211 206 203 201 202 199 198 198 202 203 202 205 207 210 210
226 248 252 244 249 267 311 29 9 355 180 257 275 279 306 295 274 259 359 350 341 331 315 302 289 278 263 247 228 207 205 200 199 200 200 199 197 198 200 202 205 207 209 211
222 217 229 274 253 252 58 22 5 347 248 18 330 321 327 306 245 136 355 350 344 337 329 315 305 292 270 240 229 203 200 198 199 199 198 198 197 195 197 200 201 204 208 212
210 214 223 233 249 259 98 17 72 216 104 330 326 323 321 328 326 327 345 346 343 347 340 331 324 312 305 235 215 195 196 202 202 199 198 198 199 199 198 198 200 202 205 211
176 184 201 228 249 249 14 61 209 332 311 314 321 317 314 315 317 326 343 344 348 353 358 355 347 348 328 250 207 187 196 199 196 199 197 195 196 198 199 201 203 205 206 211
252 330 263 247 239 18 359 292 286 278 289 299 309 307 305 306 314 320 337 341 340 352 357 3 1 26 22 10 195 189 195 193 195 195 194 192 195 197 198 197 201 202 205 213
323 301 248 314 316 321 327 297 258 276 293 290 294 291 292 296 308 318 332 336 337 343 349 356 18 31 31 30 43 39 186 197 192 192 188 186 189 195 200 198 202 207 208 211
318 311 289 263 289 326 288 265 314 302 294 280 292 310 308 296 298 314 325 331 331 331 346 1 12 17 28 30 37 35 7 189 188 189 183 182 186 191 197 205 204 210 217 215
337 303 326 296 309 300 291 314 313 310 298 284 281 292 294 299 296 309 321 328 331 323 345 4 9 13 12 25 28 31 24 43 146 165 176 178 179 180 195 198 213 228 235 223
Height
757 765 761 751 750 742 746 744 747 739 728 741 741 741 749 755 755 759 763 770 774 778 786 794 801 807 813 818 824 829 834 838 842 845 847 849 851 854 856 858 861 863 865 866
763 762 746 744 747 755 755 758 752 734 730 740 737 741 730 745 752 751 756 764 768 774 780 788 796 802 807 813 820 825 830 834 839 842 844 846 849 851 854 856 859 861 863 865
756 742 742 749 754 765 759 758 750 748 738 739 740 744 738 733 744 747 750 755 761 767 773 782 789 795 802 807 813 820 824 829 835 839 842 846 848 850 852 854 856 859 861 864
752 737 749 750 756 755 759 746 752 752 756 759 737 758 736 731 744 745 747 751 755 759 767 773 782 788 793 800 809 815 821 825 830 835 838 841 843 845 847 850 853 856 859 862
747 745 748 754 749 743 751 738 749 755 757 749 738 752 723 718 738 739 738 740 744 751 756 762 770 778 785 794 801 809 816 821 825 829 833 838 841 842 845 848 851 855 857 860
737 725 733 738 736 739 739 749 752 752 755 766 744 745 730 725 724 727 727 731 735 740 747 754 761 772 780 788 795 802 809 815 820 824 828 833 836 839 841 845 848 851 854 856
741 734 731 728 739 735 745 753 762 771 765 757 729 740 728 702 702 708 714 721 725 730 737 744 752 761 769 777 785 792 800 807 813 819 823 827 832 836 839 843 845 847 849 852
743 747 730 724 729 734 740 737 743 763 749 743 725 733 722 704 702 697 700 703 713 722 728 735 743 751 760 768 775 783 790 797 805 812 816 821 827 832 836 839 841 843 845 847
749 744 732 736 725 724 730 742 718 724 714 728 712 717 702 694 701 704 704 704 706 711 717 724 733 742 750 759 766 773 781 789 796 803 810 816 821 826 829 833 837 839 842 844
759 763 736 734 740 734 729 715 741 730 752 749 721 714 720 710 708 699 701 701 700 700 706 714 722 732 741 749 757 766 774 780 786 794 802 808 814 819 824 828 832 835 837 841
769 767 745 747 739 729 732 736 724 716 724 735 739 714 683 691 692 698 692 690 690 691 695 703 711 720 730 740 750 757 766 773 780 786 792 800 805 811 816 822 826 829 833 836
771 768 763 745 732 734 735 722 717 727 732 721 717 711 677 682 680 684 686 682 681 684 688 696 704 714 722 730 738 746 754 763 769 776 783 789 797 803 809 814 819 823 827 829
773 765 771 756 741 736 738 727 725 710 706 717 727 721 676 683 686 686 690 689 688 690 688 690 697 704 713 721 729 736 744 751 759 767 774 781 787 794 800 805 811 816 820 823
787 771 770 751 755 755 759 746 741 728 726 720 713 706 691 691 692 695 698 699 697 695 692 688 690 696 705 713 721 728 735 742 749 757 765 772 778 784 790 796 802 807 812 817
786 780 769 764 761 764 765 762 755 749 736 724 712 709 698 690 696 706 704 703 704 700 694 696 694 694 701 708 714 722 729 735 741 748 755 762 769 776 783 789 794 800 805 809
782 784 778 775 762 757 758 750 748 746 744 738 730 721 692 694 698 704 706 704 702 699 700 699 697 695 695 700 707 714 720 725 733 738 745 753 761 767 773 781 787 792 797 801
789 783 780 771 754 759 758 738 735 735 733 735 737 720 699 714 706 707 712 709 708 706 703 701 699 697 694 693 700 705 711 721 724 729 737 745 752 758 764 771 779 784 788 794
788 786 780 771 762 765 727 732 735 723 721 722 721 714 719 724 716 713 715 714 711 708 706 702 698 695 693 691 690 699 706 713 719 726 731 737 743 750 758 764 770 775 781 785
779 794 783 771 754 737 730 763 765 765 726 733 737 727 730 732 724 717 716 714 711 710 707 703 699 695 691 687 685 689 698 704 712 717 722 728 734 742 750 756 761 767 773 777
772 777 793 772 768 757 765 775 776 775 764 754 750 744 744 737 723 708 720 717 716 713 708 699 690 683 676 675 678 680 688 695 700 705 711 720 728 733 740 747 754 760 765 769
783 789 791 785 777 754 763 768 777 773 767 769 763 758 751 747 734 727 724 722 722 715 708 697 687 679 668 663 668 670 680 684 691 705 711 717 723 729 734 741 747 752 757 761
792 796 789 788 782 768 769 765 776 778 777 772 766 762 757 751 741 729 727 727 723 717 709 700 690 683 673 663 665 669 677 687 695 700 705 711 717 724 730 737 742 747 751 755
790 788 781 775 762 766 775 776 775 777 777 773 769 764 759 753 746 737 731 728 725 720 714 707 697 689 681 672 669 675 680 686 691 696 701 706 713 719 723 730 735 740 744 746
802 809 796 786 765 771 777 769 772 774 771 770 766 761 756 752 747 741 736 733 728 722 717 712 707 699 693 688 684 683 683 686 689 693 697 702 708 714 719 724 728 731 733 737
807 806 796 787 774 782 774 773 773 770 768 766 763 759 755 751 747 743 738 734 731 725 719 716 711 710 704 699 695 692 688 686 686 690 691 696 701 709 713 716 720 724 726 728
811 804 797 788 790 786 780 776 773 769 763 760 758 754 753 751 746 744 739 735 731 726 722 719 716 715 711 706 704 700 695 689 686 688 691 692 695 703 708 712 717 722 725 728